This demonstration page uses our WeatherBlox Daily Observations layout. Learn more.

Left ArrowRight Arrow

36.17497, -115.13722

Hourly Observations for March 14, 2019

Temp ( °F °C ) Dew Point ( °F °C ) Humidity (%) Winds ( mph kmh ) Pressure ( in mb ) Visibility ( mi km ) Precip ( " mm )
12:53 am 00:53 Clear 46 7.8 13 -10.6 26 26 NNW 15 24 30.24 1024 10 16 0.00 0.00
1:53 am 01:53 Clear 45 7.2 12 -11.1 26 26 NNW 14 22 30.25 1024 10 16 0.00 0.00
2:53 am 02:53 Clear 45 7.2 13 -10.6 27 27 NNW 13 20 30.25 1024 10 16 0.00 0.00
3:53 am 03:53 Clear 45 7.2 13 -10.6 27 27 NNW 14 22 30.25 1024 10 16 0.00 0.00
4:53 am 04:53 Clear 44 6.7 14 -10 30 30 NNW 21 33 30.27 1025 10 16 0.00 0.00
5:53 am 05:53 Clear 43 6.1 14 -10 31 31 NNW 17 28 30.28 1025 10 16 0.00 0.00
6:53 am 06:53 Sunny 43 6.1 14 -10 31 31 NNW 17 28 30.30 1026 10 16 0.00 0.00
7:53 am 07:53 Sunny 45 7.2 14 -10 29 29 N 15 24 30.33 1027 10 16 0.00 0.00
8:53 am 08:53 Sunny 47 8.3 14 -10 26 26 N 18 30 30.34 1027 10 16 0.00 0.00
9:53 am 09:53 Sunny 49 9.4 14 -10 25 25 NNW 23 37 30.36 1028 10 16 0.00 0.00
10:53 am 10:53 Sunny 51 10.6 14 -10 23 23 NNW 20 31 30.36 1028 10 16 0.00 0.00
11:53 am 11:53 Sunny 53 11.7 14 -10 21 21 NNW 16 26 30.36 1028 10 16 0.00 0.00
12:53 pm 12:53 Sunny 55 12.8 14 -10 20 20 N 12 19 30.35 1028 10 16 0.00 0.00
1:53 pm 13:53 Sunny 57 13.9 14 -10 18 18 NW 13 20 30.33 1027 10 16 0.00 0.00
2:53 pm 14:53 Sunny 58 14.4 15 -9.4 18 18 N 16 26 30.31 1026 10 16 0.00 0.00
3:53 pm 15:53 Sunny 58 14.4 15 -9.4 18 18 ENE 5 7 30.31 1026 10 16 0.00 0.00
4:53 pm 16:53 Sunny 59 15 15 -9.4 18 18 N 6 9 30.29 1026 10 16 0.00 0.00
5:53 pm 17:53 Sunny 59 15 16 -8.9 18 18 ENE 10 17 30.29 1026 10 16 0.00 0.00
6:53 pm 18:53 Clear 57 13.9 17 -8.3 21 21 ENE 9 15 30.29 1026 10 16 0.00 0.00
7:53 pm 19:53 Clear 54 12.2 22 -5.6 29 29 E 14 22 30.31 1026 10 16 0.00 0.00
8:53 pm 20:53 Clear 53 11.7 23 -5 31 31 ENE 10 17 30.32 1027 10 16 0.00 0.00
9:53 pm 21:53 Clear 51 10.6 23 -5 33 33 E 12 19 30.34 1028 10 16 0.00 0.00
10:53 pm 22:53 Clear 50 10 24 -4.4 36 36 N 5 7 30.35 1028 10 16 0.00 0.00
11:53 pm 23:53 Clear 50 10 24 -4.4 36 36 S 5 7 30.35 1028 10 16 0.00 0.00

Powered by AerisWeather